sat.trackr.live / text

‹ back to catalog

TIANMU-1 15

NORAD 58700 · 2024-004A

PAYLOAD ACTIVE UNKNOWN

§ Identity

Operator
Country
PRC
Launch date
2024-01-05
Launch site
JSC
Launch vehicle
Mass (kg)
RCS (m²)

Purposes: earth_obs

External: N2YO · Heavens-Above · Gunter

§ Orbital elements

Epoch: 2026-05-25T03:52:39.369792Z

Period
94.32 min
Inclination
97.4676°
Eccentricity
0.0008500
Mean motion
15.26743707 rev/d
Perigee alt
479.7 km
Apogee alt
491.4 km
Semi-major
6,863.7 km
B*
1.9122e-4
RAAN
331.3522°
Arg perigee
74.9465°
Mean anomaly
285.2713°
Rev number
13,226

§ Raw data

TIANMU-1 151 58700U 24004A   26145.16156678  .00004958  00000+0  19122-3 0  99912 58700  97.4676 331.3522 0008500  74.9465 285.2713 15.26743707132262

JSON: /api/v1/satellites/58700 · /tle

For live sub-satellite position, see the globe view (requires WebGL).

§ Visibility from observer

Set your observer location to see the next 7 days of passes ≥ 10°. The values pass through the URL so the page stays shareable.

No JS? Fill the form by hand. The geolocation button needs JavaScript.